Tracking 30995 objects as of 5-Jul-2025
HD Live streaming from Space Station
objects crossing your sky now

THORAD DELTA 1 DEB

Track THORAD DELTA 1 DEB now!
10-day predictions


NORAD ID: 8401
Int'l Code: 1974-089CD
Perigee: 1,348.8 km
Apogee: 1,452.6 km
Inclination: 101.4 °
Period: 113.6 minutes
Semi major axis: 7771 km
RCS: 0.0291 m2 (small)
Launch date: November 15, 1974
Source: United States (US)
Launch site: AIR FORCE WESTERN TEST RANGE (AFWTR)

Note: This is SATELLITE DEBRIS
Your satellite tracking list
STARLINK-3842
Track 1 satellite(s)




NASA's NSSDC Master Catalog

Two Line Element Set (TLE):
1 08401U 74089CD  25184.18843378  .00000007  00000-0  26865-3 0  9990
2 08401 101.4414 259.4777 0066785  39.0259  19.0536 12.67148563341084
Source of the keplerian elements: AFSPC